Location: ?ejeti?ky
(50.4060°N, 14.9016°E)
Time: 07:12:00
(UTC+00:00)

N. Korean satellite - Pass Details

Date: 07 December 2021
Orbit: 446 x 491 km, 97.3° (Epoch: 18 January)

Event Time Altitude Azimuth Distance (km) Brightness Sun altitude
Rises 15:29:37 0° 174° (S) 2,518 10.5 -5.2°
Reaches altitude 10° 15:31:41 10° 178° (S) 1,636 9.6 -5.5°
Maximum altitude 15:35:10 60° 259° (WSW) 541 7.2 -5.9°
Drops below altitude 10° 15:38:37 10° 340° (NNW) 1,623 9.1 -6.4°
Sets 15:40:41 0° 344° (NNW) 2,496 10.0 -6.7°
